Location: *
(50.5492°N, 7.7469°E)
Time: 05:35:58
(UTC+00:00)

Okean-O - Pass Details

Date: 21 October 2019
Orbit: 639 x 641 km, 98.2° (Epoch: 17 November)

Event Time Altitude Azimuth Distance (km) Brightness Sun altitude
Rises 16:58:16 0° 162° (SSE) 2,936 5.9 -5.9°
Reaches altitude 10° 17:00:27 10° 162° (SSE) 2,031 5.1 -6.2°
Maximum altitude 17:04:53 87° 75° (ENE) 650 2.6 -6.9°
Drops below altitude 10° 17:09:21 10° 346° (NNW) 2,047 5.3 -7.6°
Sets 17:11:34 0° 346° (NNW) 2,961 6.1 -8.0°
